Cross City, FL

12:36 AM EST on December 16, 2019 (GMT -0500)
Cross City

Weather History for KCTY - October, 2019

Change the Weather History Date:

Tuesday, October 8, 2019

  Actual Average Record
Temperature  
Mean Temperature 78 °F 73 °F  
Max Temperature 87 °F 84 °F 92 °F (2014)
Min Temperature 69 °F 61 °F 48 °F (2010)
Degree Days  
Heating Degree Days 0    
Month to date heating degree days 0  
Since 1 July heating degree days 0  
Cooling Degree Days 13    
Month to date cooling degree days 111  
Year to date cooling degree days 2868  
Growing Degree Days 28 (Base 50)    
Moisture  
Dew Point 71 °F    
Average Humidity 87    
Maximum Humidity 98    
Minimum Humidity 58    
Precipitation  
Precipitation 0.13 in 0.13 in 0.27 in (2008)
Month to date precipitation 0.30 1.19  
Year to date precipitation 47.77 41.02  
Sea Level Pressure  
Sea Level Pressure 29.92 in    
Wind  
Wind Speed 5 mph (NNE)    
Max Wind Speed 12 mph    
Max Gust Speed 17 mph    
Visibility 10 miles    
Events Rain    
T = Trace of Precipitation, MM = Missing Value Source: NWS Daily Summary

Daily Weather History Graph

Daily Weather History Graph

Search for Another Location

Airport or City:

Astronomy

Oct. 08, 2019 Rise Set
Actual Time 7:29 AM EDT 7:09 PM EDT
Civil Twilight 7:05 AM EDT 7:33 PM EDT
Nautical Twilight 6:38 AM EDT 8:01 PM EDT
Astronomical Twilight 6:10 AM EDT 8:28 PM EDT
Moon 4:41 PM EDT (10/8) 2:47 AM EDT (10/8)
Length of Visible Light 12h 28m
Length of Day
11h 40m
Waxing Gibbous, 77% of the Moon is Illuminated
Oct 8
Waxing Gibbous
Oct 13
Full
Oct 21
Last Quarter
Oct 27
New
Nov 4
First Quarter

Hourly Weather History & Observations

Time (EDT) Temp. Heat Index Dew Point Humidity Pressure Visibility Wind Dir Wind Speed Gust Speed Precip Events Conditions
12:15 AM 70.9 °F - 69.8 °F 96% 29.92 in 10.0 mi NE 5.8 mph - N/A   Overcast
12:35 AM 71.1 °F - 70.2 °F 97% 29.91 in 10.0 mi NE 5.8 mph - N/A   Overcast
12:55 AM 71.4 °F - 70.5 °F 97% 29.91 in 10.0 mi NNE 5.8 mph - N/A   Overcast
1:15 AM 71.8 °F - 71.1 °F 98% 29.90 in 10.0 mi NNE 10.4 mph - N/A Rain Light Rain
1:35 AM 72.0 °F - 71.2 °F 98% 29.89 in 10.0 mi NNE 9.2 mph - N/A   Overcast
1:55 AM 72.1 °F - 71.2 °F 97% 29.90 in 10.0 mi NNE 6.9 mph - N/A   Overcast
2:15 AM 72.1 °F - 71.2 °F 97% 29.89 in 10.0 mi North 6.9 mph - N/A   Overcast
2:35 AM 71.8 °F - 70.9 °F 97% 29.89 in 10.0 mi NNE 3.5 mph - N/A   Overcast
2:55 AM 71.2 °F - 70.5 °F 98% 29.89 in 10.0 mi Calm Calm - N/A   Overcast
3:15 AM 71.2 °F - 70.5 °F 98% 29.89 in 10.0 mi North 5.8 mph - N/A   Overcast
3:35 AM 70.9 °F - 70.3 °F 98% 29.89 in 10.0 mi North 5.8 mph - N/A   Overcast
3:55 AM 71.1 °F - 70.3 °F 98% 29.89 in 10.0 mi North 5.8 mph - N/A   Overcast
4:15 AM 70.9 °F - 70.2 °F 98% 29.88 in 10.0 mi NNE 6.9 mph - N/A   Mostly Cloudy
4:35 AM 70.9 °F - 70.0 °F 97% 29.89 in 10.0 mi NNE 4.6 mph - N/A   Scattered Clouds
4:55 AM 70.7 °F - 69.6 °F 96% 29.89 in 10.0 mi North 6.9 mph - N/A   Clear
5:15 AM 70.9 °F - 69.4 °F 95% 29.89 in 10.0 mi North 6.9 mph - N/A   Clear
5:55 AM 70.5 °F - 69.1 °F 95% 29.90 in 10.0 mi NNE 5.8 mph - N/A   Clear
6:15 AM 70.0 °F - 68.7 °F 96% 29.90 in 10.0 mi North 3.5 mph - N/A   Clear
6:35 AM 69.8 °F - 68.7 °F 96% 29.90 in 10.0 mi NNE 3.5 mph - N/A   Clear
6:55 AM 69.8 °F - 68.0 °F 94% 29.91 in 10.0 mi Calm Calm - N/A   Clear
7:15 AM 69.8 °F - 68.0 °F 94% 29.91 in 10.0 mi NNE 4.6 mph - N/A   Clear
7:35 AM 69.3 °F - 68.5 °F 98% 29.91 in 10.0 mi North 4.6 mph - N/A   Scattered Clouds
7:55 AM 69.4 °F - 68.7 °F 98% 29.92 in 10.0 mi North 6.9 mph - N/A   Scattered Clouds
8:15 AM 70.0 °F - 69.3 °F 98% 29.92 in 10.0 mi NNE 5.8 mph - N/A   Scattered Clouds
8:35 AM 71.6 °F - 70.0 °F 95% 29.92 in 10.0 mi NNE 9.2 mph - N/A   Scattered Clouds
8:55 AM 71.6 °F - 69.8 °F 94% 29.93 in 10.0 mi NNE 9.2 mph - N/A   Mostly Cloudy
9:15 AM 72.3 °F - 70.3 °F 93% 29.94 in 10.0 mi NNE 10.4 mph - N/A   Overcast
9:35 AM 72.9 °F - 70.7 °F 93% 29.95 in 10.0 mi NNE 9.2 mph - N/A   Overcast
9:55 AM 73.0 °F - 70.5 °F 92% 29.95 in 10.0 mi NE 9.2 mph - N/A   Overcast
10:15 AM 75.6 °F - 71.4 °F 87% 29.96 in 10.0 mi NNE 9.2 mph - N/A   Overcast
10:35 AM 75.2 °F - 71.6 °F 89% 29.96 in 10.0 mi NNE 11.5 mph - N/A   Overcast
10:55 AM 75.4 °F - 70.9 °F 86% 29.96 in 10.0 mi NE 6.9 mph - N/A   Mostly Cloudy
11:10 AM 76.6 °F - 71.4 °F 84% 29.96 in 10.0 mi NNE 10.4 mph - N/A   Overcast
11:35 AM 78.4 °F - 72.1 °F 81% 29.96 in 10.0 mi NE 10.4 mph - N/A   Mostly Cloudy
11:55 AM 80.6 °F 84.9 °F 72.3 °F 76% 29.96 in 10.0 mi NNE 10.4 mph - N/A   Scattered Clouds
12:15 PM 80.6 °F 84.7 °F 72.0 °F 75% 29.95 in 10.0 mi NNE 11.5 mph - N/A   Scattered Clouds
12:35 PM 81.9 °F 86.8 °F 72.3 °F 73% 29.95 in 10.0 mi NNE 12.7 mph 17.3 mph N/A   Scattered Clouds
12:55 PM 81.5 °F 85.9 °F 71.8 °F 72% 29.95 in 10.0 mi NNE 9.2 mph - N/A   Mostly Cloudy
1:15 PM 81.7 °F 86.0 °F 71.6 °F 71% 29.94 in 10.0 mi NNE 11.5 mph - N/A   Overcast
1:35 PM 80.6 °F 84.6 °F 71.6 °F 74% 29.93 in 10.0 mi NE 10.4 mph - N/A   Overcast
1:55 PM 82.6 °F 87.3 °F 71.6 °F 69% 29.92 in 10.0 mi ENE 5.8 mph - N/A   Overcast
2:15 PM 82.4 °F 87.2 °F 71.6 °F 70% 29.92 in 10.0 mi ENE 9.2 mph - N/A   Overcast
2:35 PM 83.5 °F 88.5 °F 71.4 °F 67% 29.90 in 10.0 mi NE 11.5 mph - N/A   Overcast
2:55 PM 84.2 °F 89.3 °F 71.1 °F 65% 29.90 in 10.0 mi NNE 11.5 mph - N/A   Scattered Clouds
3:15 PM 84.6 °F 89.7 °F 71.2 °F 64% 29.90 in 10.0 mi ENE 6.9 mph - N/A   Scattered Clouds
3:55 PM 86.9 °F 92.9 °F 71.4 °F 60% 29.89 in 10.0 mi NNE 8.1 mph - N/A   Scattered Clouds
4:15 PM 86.4 °F 91.1 °F 70.2 °F 58% 29.89 in 10.0 mi NE 8.1 mph - N/A   Scattered Clouds
4:35 PM 86.0 °F 90.7 °F 70.0 °F 59% 29.89 in 10.0 mi NNE 8.1 mph - N/A   Scattered Clouds
4:55 PM 87.1 °F 92.4 °F 70.5 °F 58% 29.88 in 10.0 mi NE 8.1 mph - N/A   Scattered Clouds
5:15 PM 84.0 °F 88.7 °F 70.5 °F 64% 29.89 in 10.0 mi ENE 3.5 mph - N/A   Scattered Clouds
5:35 PM 84.4 °F 89.7 °F 71.4 °F 65% 29.89 in 10.0 mi North 4.6 mph - N/A   Scattered Clouds
5:55 PM 85.6 °F 91.5 °F 72.0 °F 63% 29.89 in 10.0 mi North 6.9 mph - N/A   Scattered Clouds
6:15 PM 84.6 °F 89.7 °F 71.1 °F 64% 29.89 in 10.0 mi NNE 8.1 mph - N/A   Mostly Cloudy
6:35 PM 84.6 °F 90.0 °F 71.8 °F 65% 29.90 in 10.0 mi NE 4.6 mph - N/A   Mostly Cloudy
6:55 PM 81.0 °F 85.2 °F 72.0 °F 74% 29.91 in 10.0 mi SE 5.8 mph - N/A   Overcast
7:15 PM 76.3 °F - 73.4 °F 91% 29.93 in 3.0 mi East 5.8 mph - 0.13 in Rain Rain
7:35 PM 75.6 °F - 73.0 °F 92% 29.93 in 10.0 mi Calm Calm - 0.13 in Rain Light Rain
7:55 PM 75.0 °F - 73.0 °F 94% 29.93 in 10.0 mi Calm Calm - 0.13 in   Overcast
8:15 PM 74.1 °F - 73.0 °F 96% 29.94 in 10.0 mi ESE 3.5 mph - N/A   Mostly Cloudy
8:35 PM 73.9 °F - 73.0 °F 97% 29.94 in 10.0 mi Calm Calm - N/A   Scattered Clouds
8:55 PM 73.9 °F - 72.3 °F 95% 29.95 in 10.0 mi Calm Calm - N/A   Scattered Clouds
9:15 PM 73.2 °F - 72.1 °F 96% 29.96 in 10.0 mi Calm Calm - N/A   Clear
9:35 PM 72.9 °F - 72.1 °F 98% 29.96 in 10.0 mi Calm Calm - N/A   Mostly Cloudy
9:55 PM 72.5 °F - 72.0 °F 98% 29.97 in 7.0 mi Calm Calm - N/A   Mostly Cloudy
10:15 PM 72.9 °F - 72.3 °F 98% 29.97 in 10.0 mi Calm Calm - N/A   Mostly Cloudy
10:55 PM 72.7 °F - 71.6 °F 96% 29.98 in 10.0 mi Calm Calm - N/A   Scattered Clouds
11:15 PM 71.8 °F - 70.9 °F 97% 29.98 in 10.0 mi Calm Calm - N/A   Clear
11:35 PM 71.4 °F - 70.9 °F 98% 29.98 in 7.0 mi Calm Calm - N/A   Clear
11:55 PM 71.6 °F - 69.8 °F 94% 29.98 in 4.0 mi Calm Calm - N/A   Clear